Weather History for EGUN - October, 2011

Change the Weather History Date:

Sunday, October 16, 2011

  Actual Average (EGSC) Record (EGSC)
Temperature  
Mean Temperature 50 °F -  
Max Temperature 64 °F 57 °F 64 °F (2005)
Min Temperature 38 °F 45 °F 37 °F (2003)
Degree Days  
Heating Degree Days 14    
Moisture  
Dew Point 48 °F    
Average Humidity 86    
Maximum Humidity 98    
Minimum Humidity 63    
Precipitation  
Precipitation 0.00 in - - ()
Sea Level Pressure  
Sea Level Pressure 30.15 in    
Wind  
Wind Speed 3 mph ()    
Max Wind Speed 10 mph    
Max Gust Speed -    
Visibility 6.2 miles    
Events      
Averages and records for this station are not official NWS values.
T = Trace of Precipitation, MM = Missing Value Source: Averaged Metar Reports

Daily Weather History Graph

Daily Weather History Graph

Search for Another Location

Airport or City:

Trip Planner

Search our weather history database for the weather conditions in past years. The results will help you decide how hot, cold, wet, or windy it might be!

Date:

Astronomy

Oct. 16, 2011 Rise Set
Actual Time 7:24 AM BST 6:02 PM BST
Civil Twilight 6:49 AM BST 6:36 PM BST
Nautical Twilight 6:10 AM BST 7:15 PM BST
Astronomical Twilight 5:30 AM BST 7:55 PM BST
Moon 8:00 PM BST (10/16) 12:03 PM BST (10/16)
Length of Visible Light 11h 46m
Length of Day
10h 37m
Waning Gibbous, 84% of the Moon is Illuminated
Oct 16
Waning Gibbous
Oct 20
Last Quarter
Oct 26
New
Nov 2
First Quarter
Nov 10
Full

Hourly Weather History & Observations

Time (BST) Temp. Windchill Dew Point Humidity Pressure Visibility Wind Dir Wind Speed Gust Speed Precip Events Conditions
12:55 AM 42.6 °F - 40.6 °F 93% 30.18 in 6.2 mi Calm Calm - N/A   Clear
1:55 AM 39.2 °F 37.0 °F 38.3 °F 97% 30.17 in 6.2 mi SE 3.5 mph - N/A   Clear
2:55 AM 41.2 °F - 39.4 °F 93% 30.16 in 6.2 mi Calm Calm - N/A   Clear
4:55 AM 40.6 °F - 39.6 °F 96% 30.15 in 6.2 mi Calm Calm - N/A   Clear
5:55 AM 38.5 °F - 37.8 °F 97% 30.15 in 6.2 mi Calm Calm - N/A   Clear
6:55 AM 38.1 °F - 37.6 °F 98% 30.15 in 6.2 mi Calm Calm - N/A   Clear
7:55 AM 38.1 °F - 37.4 °F 97% 30.16 in 6.2 mi Calm Calm - N/A   Clear
8:55 AM 43.5 °F - 42.4 °F 96% 30.16 in 6.2 mi Calm Calm - N/A   Clear
9:55 AM 50.4 °F - 47.7 °F 90% 30.17 in 6.2 mi SW 5.8 mph - N/A   Clear
12:55 PM 61.3 °F - 49.6 °F 65% 30.16 in 6.2 mi SW 8.1 mph - N/A   Clear
1:55 PM 63.7 °F - 50.7 °F 63% 30.14 in 6.2 mi WSW 6.9 mph - N/A   Partly Cloudy
1:59 PM 62.6 °F - 51.8 °F 68% 30.14 in 6.2 mi WSW 6.9 mph - N/A   Mostly Cloudy
2:48 PM 62.6 °F - 51.8 °F 68% 30.13 in 6.2 mi WSW 8.1 mph - N/A   Mostly Cloudy
2:55 PM 63.7 °F - 52.5 °F 67% 30.13 in 6.2 mi West 6.9 mph - N/A   Mostly Cloudy
3:37 PM 62.6 °F - 53.6 °F 72% 30.13 in 6.2 mi West 8.1 mph - N/A   Mostly Cloudy
3:55 PM 62.6 °F - 53.1 °F 71% 30.14 in 6.2 mi West 10.4 mph - N/A   Mostly Cloudy
4:55 PM 61.7 °F - 53.1 °F 73% 30.14 in 6.2 mi WSW 5.8 mph - N/A   Overcast
5:55 PM 60.6 °F - 53.2 °F 77% 30.14 in 6.2 mi SW 4.6 mph - N/A   Mostly Cloudy
5:59 PM 59.0 °F - 53.6 °F 82% 30.14 in 6.2 mi SSW 3.5 mph - N/A   Scattered Clouds
6:37 PM 57.2 °F - 51.8 °F 82% 30.14 in 6.2 mi South 3.5 mph - N/A   Mostly Cloudy
7:55 PM 55.6 °F - 52.3 °F 89% 30.14 in 6.2 mi South 3.5 mph - N/A   Overcast
8:45 PM 55.4 °F - 51.8 °F 88% 30.14 in 6.2 mi SW 4.6 mph - N/A   Scattered Clouds
8:56 PM 53.6 °F - 51.8 °F 94% 30.15 in 6.2 mi SW 4.6 mph - N/A   Mostly Cloudy
9:12 PM 53.6 °F - 51.8 °F 94% 30.14 in 6.2 mi SSW 4.6 mph - N/A   Scattered Clouds
9:18 PM 53.6 °F - 51.8 °F 94% 30.14 in 6.2 mi SSW 4.6 mph - N/A   Mostly Cloudy
9:23 PM 53.6 °F - 51.8 °F 94% 30.14 in 6.2 mi SSW 3.5 mph - N/A   Scattered Clouds
9:37 PM 53.6 °F - 51.8 °F 94% 30.14 in 6.2 mi Calm Calm - N/A   Mostly Cloudy
9:44 PM 53.6 °F - 50.0 °F 88% 30.14 in 6.2 mi South 3.5 mph - N/A   Scattered Clouds
9:55 PM 52.3 °F - 50.2 °F 92% 30.14 in 6.2 mi South 3.5 mph - N/A   Scattered Clouds
10:24 PM 51.8 °F - 50.0 °F 94% 30.14 in 6.2 mi SSW 4.6 mph - N/A   Scattered Clouds
11:55 PM 49.6 °F - 48.0 °F 94% 30.13 in 6.2 mi SSW 5.8 mph - N/A   Clear